Location: Home
(42.5358°N, 72.7383°W)
Time: 23:48:47
(UTC-05:00)

Vanguard 1 - Pass Details

Date: 02 December 2021
Orbit: 652 x 3830 km, 34.2° (Epoch: 21 January)

Event Time Altitude Azimuth Distance (km) Brightness Sun altitude
Rises 21:09:41 0° 196° (SSW) 6,644 14.3 -52.6°
Reaches altitude 10° 21:14:46 10° 185° (S) 6,041 13.9 -53.5°
Enters shadow 21:15:02 11° 184° (S) 6,016 13.9 -53.5°
Maximum altitude 21:30:29 28° 135° (SE) 5,398 - -56.1°
Drops below altitude 10° 21:47:53 10° 86° (E) 6,792 - -58.9°
Sets 21:53:56 0° 77° (ENE) 7,581 - -59.8°
